Terminal Aerodrome Forecast
Issued by NWS

Home | Current Version | Previous Version | Text Only | Print | Product List | Glossary On
Versions: 1 2 3 4 5 6 7 8 9 10 11 12 13 14 15 16 17 18 19 20 21 22 23 24 25 26 27 28 29 30 31 32 33 34 35 36 37 38 39 40 41 42 43 44 45 46 47 48 49 50
000
FTUS44 KHGX 190057 AAA
TAFCXO
TAF AMD
KCXO 190057Z 1901/1924 VRB04KT P6SM SCT008 BKN015
      TEMPO 1901/1905 BKN008
     FM190500 00000KT 4SM BR BKN008
      TEMPO 1909/1913 1/2SM FG OVC002
     FM191400 09006KT P6SM VCSH FEW015 SCT035 BKN120
     FM192200 12005KT P6SM SCT025 BKN250=

USA.gov is the U.S. government's official web portal to all federal, state and local government web resources and services.